• en France
  • Liste des pays
  • À 7 jours
  • Température de l'eau
  • Carte satellitaire
  • Carte météo
  • Widgets météo
  • user-avatar
    Se connecter

    Météo par heure à Makoua

    Ce jour, 25 Février, Dimanche

    Heure Température Précipitation Vent Pression Humidité
    00:00 +25°C° 0 mm 0 m/s 724 mmHg 74%
    01:00 +24°C° 0 mm 0 m/s 725 mmHg 77%
    02:00 +24°C° 0 mm 0 m/s 724 mmHg 78%
    03:00 +24°C° 0 mm 0 m/s 724 mmHg 78%
    04:00 +24°C° 0 mm 0 m/s 724 mmHg 79%
    05:00 +25°C° 1 mm 1 m/s 725 mmHg 82%
    06:00 +25°C° 1 mm 1 m/s 725 mmHg 85%
    07:00 +25°C° 1 mm 1 m/s 726 mmHg 89%
    08:00 +28°C° 0,4 mm 1 m/s 726 mmHg 79%
    09:00 +30°C° 0,4 mm 1 m/s 727 mmHg 70%
    10:00 +33°C° 0,4 mm 1 m/s 727 mmHg 61%
    11:00 +34°C° 0,3 mm 1 m/s 726 mmHg 56%
    12:00 +35°C° 0,3 mm 1 m/s 726 mmHg 51%
    13:00 +36°C° 0,3 mm 1 m/s 725 mmHg 45%
    14:00 +35°C° 0,2 mm 1 m/s 724 mmHg 48%
    15:00 +34°C° 0,2 mm 1 m/s 723 mmHg 51%
    16:00 +33°C° 0,2 mm 1 m/s 723 mmHg 53%
    17:00 +32°C° 0,1 mm 1 m/s 723 mmHg 59%
    18:00 +30°C° 0,1 mm 1 m/s 723 mmHg 66%
    19:00 +29°C° 0,1 mm 1 m/s 723 mmHg 72%
    20:00 +28°C° 0,3 mm 1 m/s 723 mmHg 74%
    21:00 +28°C° 0,3 mm 1 m/s 724 mmHg 77%
    22:00 +27°C° 0,3 mm 2 m/s 725 mmHg 79%
    23:00 +26°C° 2,6 mm 2 m/s 725 mmHg 83%

    Demain, 26 Février, Lundi

    Heure Température Précipitation Vent Pression Humidité
    00:00 +26°C° 2,6 mm 2 m/s 725 mmHg 86%
    01:00 +25°C° 2,6 mm 2 m/s 725 mmHg 90%
    02:00 +25°C° 2,7 mm 2 m/s 725 mmHg 91%
    03:00 +24°C° 2,7 mm 2 m/s 725 mmHg 91%
    04:00 +24°C° 2,7 mm 2 m/s 725 mmHg 92%
    05:00 +24°C° 0,7 mm 2 m/s 726 mmHg 92%
    06:00 +24°C° 0,7 mm 2 m/s 726 mmHg 92%
    07:00 +24°C° 0,7 mm 1 m/s 726 mmHg 92%
    08:00 +25°C° 0,4 mm 1 m/s 727 mmHg 88%
    09:00 +27°C° 0,4 mm 2 m/s 727 mmHg 84%
    10:00 +28°C° 0,4 mm 2 m/s 727 mmHg 80%
    11:00 +29°C° 0,5 mm 2 m/s 727 mmHg 71%
    12:00 +31°C° 0,5 mm 2 m/s 726 mmHg 61%
    13:00 +34°C° 0,5 mm 2 m/s 726 mmHg 52%
    14:00 +34°C° 0,2 mm 2 m/s 725 mmHg 53%
    15:00 +34°C° 0,2 mm 2 m/s 725 mmHg 53%
    16:00 +34°C° 0,2 mm 2 m/s 724 mmHg 54%
    17:00 +30°C° 1,8 mm 1 m/s 724 mmHg 65%
    18:00 +28°C° 1,8 mm 1 m/s 725 mmHg 77%
    19:00 +26°C° 1,8 mm 1 m/s 725 mmHg 88%
    20:00 +25°C° 1,5 mm 1 m/s 726 mmHg 91%
    21:00 +25°C° 1,5 mm 1 m/s 726 mmHg 93%
    22:00 +25°C° 1,5 mm 1 m/s 727 mmHg 95%
    23:00 +25°C° 0,3 mm 1 m/s 727 mmHg 95%

    Après-demain, 27 Février, Mardi

    Heure Température Précipitation Vent Pression Humidité
    00:00 +24°C° 0,3 mm 1 m/s 726 mmHg 95%
    01:00 +24°C° 0,3 mm 1 m/s 726 mmHg 95%
    02:00 +24°C° 0,4 mm 1 m/s 726 mmHg 95%
    03:00 +24°C° 0,4 mm 2 m/s 726 mmHg 94%
    04:00 +23°C° 0,4 mm 2 m/s 725 mmHg 94%
    05:00 +23°C° 0 mm 1 m/s 726 mmHg 94%
    06:00 +23°C° 0 mm 1 m/s 726 mmHg 94%
    07:00 +24°C° 0 mm 1 m/s 727 mmHg 93%
    08:00 +25°C° 0 mm 1 m/s 727 mmHg 86%
    09:00 +26°C° 0 mm 1 m/s 728 mmHg 79%
    10:00 +28°C° 0 mm 1 m/s 728 mmHg 72%
    11:00 +29°C° 0 mm 1 m/s 728 mmHg 66%
    12:00 +31°C° 0 mm 2 m/s 727 mmHg 59%
    13:00 +32°C° 0 mm 2 m/s 726 mmHg 53%
    14:00 +34°C° 0 mm 2 m/s 725 mmHg 51%
    15:00 +33°C° 0 mm 1 m/s 725 mmHg 48%
    16:00 +33°C° 0 mm 1 m/s 724 mmHg 46%
    17:00 +32°C° 0 mm 1 m/s 724 mmHg 53%
    18:00 +30°C° 0 mm 1 m/s 725 mmHg 61%
    19:00 +28°C° 0 mm 1 m/s 725 mmHg 69%
    20:00 +27°C° 0,1 mm 1 m/s 726 mmHg 73%
    21:00 +26°C° 0,1 mm 1 m/s 726 mmHg 78%
    22:00 +25°C° 0,1 mm 1 m/s 727 mmHg 82%
    23:00 +25°C° 0 mm 1 m/s 726 mmHg 84%

    28 Février, Mercredi

    Heure Température Précipitation Vent Pression Humidité
    00:00 +24°C° 0 mm 1 m/s 726 mmHg 85%
    01:00 +24°C° 0 mm 1 m/s 726 mmHg 86%
    02:00 +24°C° 0 mm 1 m/s 725 mmHg 86%
    03:00 +24°C° 0 mm 1 m/s 725 mmHg 85%
    04:00 +24°C° 0 mm 1 m/s 725 mmHg 85%
    05:00 +24°C° 0 mm 1 m/s 726 mmHg 84%
    06:00 +24°C° 0 mm 1 m/s 726 mmHg 83%
    07:00 +24°C° 0 mm 1 m/s 726 mmHg 82%
    08:00 +27°C° 0 mm 1 m/s 727 mmHg 72%
    09:00 +29°C° 0 mm 1 m/s 727 mmHg 63%
    10:00 +31°C° 0 mm 1 m/s 728 mmHg 53%
    11:00 +32°C° 0 mm 2 m/s 727 mmHg 49%
    12:00 +34°C° 0 mm 2 m/s 726 mmHg 45%
    13:00 +35°C° 0 mm 2 m/s 725 mmHg 41%
    14:00 +35°C° 0 mm 2 m/s 725 mmHg 41%
    15:00 +34°C° 0 mm 1 m/s 724 mmHg 41%
    16:00 +34°C° 0 mm 1 m/s 724 mmHg 40%
    17:00 +33°C° 0 mm 1 m/s 724 mmHg 48%
    18:00 +31°C° 0 mm 1 m/s 725 mmHg 55%
    19:00 +29°C° 0 mm 1 m/s 725 mmHg 62%
    20:00 +28°C° 0,4 mm 1 m/s 726 mmHg 70%
    21:00 +26°C° 0,4 mm 1 m/s 726 mmHg 79%
    22:00 +23°C° 0,4 mm 0 m/s 727 mmHg 87%
    23:00 +25°C° 0 mm 1 m/s 726 mmHg 88%

    1 Mars, Jeudi

    Heure Température Précipitation Vent Pression Humidité
    00:00 +24°C° 0 mm 1 m/s 726 mmHg 90%
    01:00 +24°C° 0 mm 1 m/s 726 mmHg 91%
    02:00 +24°C° 0 mm 1 m/s 725 mmHg 91%
    03:00 +24°C° 0 mm 1 m/s 725 mmHg 91%
    04:00 +24°C° 0 mm 1 m/s 725 mmHg 91%
    05:00 +24°C° 0 mm 1 m/s 725 mmHg 90%
    06:00 +24°C° 0 mm 1 m/s 726 mmHg 89%
    07:00 +22°C° 0 mm 0 m/s 727 mmHg 88%
    08:00 +27°C° 0,1 mm 1 m/s 727 mmHg 78%
    09:00 +29°C° 0,1 mm 1 m/s 728 mmHg 67%
    10:00 +31°C° 0,1 mm 2 m/s 728 mmHg 57%
    11:00 +32°C° 0,2 mm 2 m/s 727 mmHg 53%
    12:00 +34°C° 0,2 mm 2 m/s 726 mmHg 48%
    13:00 +36°C° 0,2 mm 2 m/s 725 mmHg 44%
    14:00 +35°C° 0 mm 2 m/s 725 mmHg 46%
    15:00 +33°C° 0 mm 1 m/s 724 mmHg 48%
    16:00 +33°C° 0 mm 1 m/s 724 mmHg 50%
    17:00 +31°C° 0 mm 1 m/s 724 mmHg 56%
    18:00 +30°C° 0 mm 1 m/s 725 mmHg 63%
    19:00 +28°C° 0 mm 1 m/s 725 mmHg 69%
    20:00 +27°C° 0 mm 1 m/s 725 mmHg 73%
    21:00 +26°C° 0 mm 1 m/s 726 mmHg 77%
    22:00 +26°C° 0 mm 1 m/s 726 mmHg 80%
    23:00 +25°C° 0 mm 1 m/s 726 mmHg 82%

    2 Mars, Vendredi

    Heure Température Précipitation Vent Pression Humidité
    00:00 +25°C° 0 mm 1 m/s 725 mmHg 84%
    01:00 +25°C° 0 mm 1 m/s 725 mmHg 86%
    02:00 +24°C° 0 mm 1 m/s 725 mmHg 86%
    03:00 +24°C° 0 mm 1 m/s 725 mmHg 86%
    04:00 +24°C° 0 mm 1 m/s 724 mmHg 86%
    05:00 +25°C° 0 mm 1 m/s 725 mmHg 85%
    06:00 +25°C° 0 mm 1 m/s 725 mmHg 84%
    07:00 +25°C° 0 mm 1 m/s 726 mmHg 83%
    08:00 +27°C° 0 mm 1 m/s 726 mmHg 75%
    09:00 +29°C° 0 mm 1 m/s 727 mmHg 67%
    10:00 +30°C° 0 mm 1 m/s 727 mmHg 59%
    11:00 +32°C° 0 mm 1 m/s 726 mmHg 52%
    12:00 +34°C° 0 mm 1 m/s 725 mmHg 45%
    13:00 +36°C° 0 mm 1 m/s 725 mmHg 37%
    14:00 +36°C° 0 mm 1 m/s 724 mmHg 38%
    15:00 +36°C° 0 mm 1 m/s 724 mmHg 38%
    16:00 +36°C° 0 mm 1 m/s 723 mmHg 38%
    17:00 +33°C° 0 mm 1 m/s 723 mmHg 45%
    18:00 +31°C° 0 mm 1 m/s 724 mmHg 52%
    19:00 +29°C° 0 mm 1 m/s 724 mmHg 59%
    20:00 +29°C° 0 mm 1 m/s 724 mmHg 61%
    21:00 +28°C° 0 mm 1 m/s 725 mmHg 64%
    22:00 +27°C° 0 mm 1 m/s 725 mmHg 67%
    23:00 +27°C° 0 mm 1 m/s 725 mmHg 69%
    Voir plus